Flag for Canada Weather past 2 weeks in Calgary, Alberta, Canada

Now
55 °F

Passing clouds.


Feels Like: 55 °F
Forecast: 57 / 70 °F
Wind: 5 mph from North

Location: Calgary International

Current Time: Jul 7, 2015 at 6:04:15 AM

Latest Report: Jul 7, 2015 at 5:00 AM


Visibility: 10 mi

Pressure: 30.13 "Hg (26.54 "Hg at 1063m altitude)

Humidity: 77%

Dew point: 48 °F

Location of CalgaryLocation

Historic Weather in Calgary — Graph

°F

Calgary temperature yesterday

Maximum temperature yesterday: 72 °F (at 2:00 PM)
Minimum temperature yesterday: 46 °F (at 5:00 AM)
Average temperature yesterday: 60 °F

Past Weeks' High & Low Weather Summary

 TemperatureHumidityPressure
High86 °F (Jun 27, 3:00 PM)94% (Jun 30, 3:00 AM)30.28 "Hg (Jun 30, 3:00 AM)
Low41 °F (Jun 22, 5:00 AM)25% (Jun 27, 3:00 PM)29.77 "Hg (Jul 3, 9:00 PM)
Average67 °F58%30.06 "Hg
* Reported Jun 22 5:00 AM — Jul 7 5:00 AM, Calgary, Weather by CustomWeather, © 2015

Note: Actual official high and low records may vary slightly from our data, if they occured in-between our weather recording intervals... More about our weather records

Advertising

Calgary weather history for previous 24 hours

 ConditionsComfort  
Time TempWeatherWind HumidityBarometerVisibility
5:00 AM
Tue, Jul 7
55 °FPassing clouds.5 mph77%30.13 "Hg10 mi
4:00 AM57 °FPassing clouds.2 mph72%30.13 "Hg15 mi
3:00 AM59 °FPartly cloudy.3 mph72%30.13 "Hg15 mi
2:00 AM57 °FSprinkles. Partly cloudy.9 mph82%30.14 "Hg15 mi
1:00 AM59 °FSprinkles. Passing clouds.6 mph77%30.15 "Hg15 mi
12:00 AM57 °FSprinkles. Passing clouds.No wind82%30.15 "Hg15 mi
11:00 PM
Mon, Jul 6
57 °FSprinkles. Overcast.8 mph88%30.17 "Hg15 mi
10:00 PM57 °FSprinkles. More clouds than sun.18 mph88%30.17 "Hg10 mi
9:04 PM63 °FRain showers. Partly sunny.21 mph64%30.11 "Hg10 mi
8:57 PM70 °FSprinkles. Partly sunny.No wind43%30.09 "Hg15 mi
8:00 PM72 °FBroken clouds.9 mph44%30.05 "Hg15 mi
7:00 PM70 °FPartly sunny.12 mph43%30.06 "Hg30 mi
6:00 PM72 °FMostly cloudy.9 mph41%30.06 "Hg20 mi
5:00 PM72 °FMostly cloudy.12 mph44%30.07 "Hg15 mi
4:00 PM72 °FMostly cloudy.13 mph41%30.07 "Hg15 mi
3:00 PM72 °FMostly cloudy.15 mph44%30.09 "Hg15 mi
2:00 PM72 °FBroken clouds.13 mph47%30.10 "Hg15 mi
1:00 PM68 °FScattered clouds.13 mph49%30.11 "Hg15 mi
12:00 PM66 °FScattered clouds.12 mph56%30.14 "Hg15 mi
11:00 AM64 °FScattered clouds.9 mph56%30.15 "Hg15 mi
10:00 AM57 °FBroken clouds.12 mph67%30.18 "Hg15 mi
9:00 AM55 °FPartly sunny.12 mph72%30.20 "Hg15 mi
8:00 AM52 °FPartly sunny.12 mph82%30.21 "Hg15 mi
7:00 AM50 °FPartly sunny.10 mph82%30.21 "Hg15 mi
6:00 AM46 °FPassing clouds.6 mph87%30.23 "Hg15 mi
Weather by CustomWeather, © 2015

See weather overviewHow to use our weather pages